Location: Ahausen
(50.4985°N, 8.2722°E)
Time: 15:55:06
(UTC+00:00)

Cosmos 1603 - Pass Details

Date: 18 September 2020
Orbit: 832 x 858 km, 71.0° (Epoch: 21 October)

Event Time Altitude Azimuth Distance (km) Brightness Sun altitude
Rises 18:20:44 0° 328° (NNW) 3,423 7.6 -8.3°
Reaches altitude 10° 18:23:14 10° 325° (NW) 2,480 6.9 -8.7°
Maximum altitude 18:28:48 60° 247° (WSW) 964 4.3 -9.6°
Drops below altitude 10° 18:34:19 10° 169° (S) 2,446 5.9 -10.4°
Sets 18:36:45 0° 166° (SSE) 3,373 6.5 -10.8°
